Weather History for KWVI - June, 2012

Change the Weather History Date:

Sunday, June 3, 2012

  Actual Average Record
Temperature  
Mean Temperature 65 °F 61 °F  
Max Temperature 76 °F 72 °F 78 °F (2006)
Min Temperature 54 °F 49 °F 45 °F (2000)
Degree Days  
Heating Degree Days 0    
Month to date heating degree days 5  
Since 1 June heating degree days 5  
Since 1 July heating degree days 2453  
Cooling Degree Days 0    
Month to date cooling degree days 0  
Year to date cooling degree days 13  
Since 1 June cooling degree days 0  
Growing Degree Days 13 (Base 50)    
Moisture  
Dew Point 50 °F    
Average Humidity 65    
Maximum Humidity 89    
Minimum Humidity 41    
Precipitation  
Precipitation 0.00 in - 0.06 in (1958)
Month to date precipitation T  
Year to date precipitation 11.72  
Since 1 July precipitation 16.01  
Sea Level Pressure  
Sea Level Pressure 29.95 in    
Wind  
Wind Speed 4 mph (SE)    
Max Wind Speed 12 mph    
Max Gust Speed 15 mph    
Visibility 6 miles    
Events Fog    
T = Trace of Precipitation, MM = Missing Value Source: NWS Daily Summary

Daily Weather History Graph

Daily Weather History Graph

Search for Another Location

Airport or City:

Trip Planner

Search our weather history database for the weather conditions in past years. The results will help you decide how hot, cold, wet, or windy it might be!

Date:

Astronomy

Jun. 03, 2012 Rise Set
Actual Time 5:48 AM PDT 8:22 PM PDT
Civil Twilight 5:18 AM PDT 8:53 PM PDT
Nautical Twilight 4:40 AM PDT 9:30 PM PDT
Astronomical Twilight 3:58 AM PDT 10:12 PM PDT
Moon 7:54 PM PDT (6/3) 5:01 AM PDT (6/3)
Length of Visible Light 15h 35m
Length of Day
14h 34m
Waxing Gibbous, 99% of the Moon is Illuminated
Jun 3
Waxing Gibbous
Jun 4
Full
Jun 11
Last Quarter
Jun 19
New
Jun 26
First Quarter

Hourly Weather History & Observations

Time (PDT) Temp. Dew Point Humidity Pressure Visibility Wind Dir Wind Speed Gust Speed Precip Events Conditions
12:53 AM 55.9 °F 50.0 °F 80% 29.97 in 10.0 mi ENE 4.6 mph - N/A   Overcast
1:53 AM 55.9 °F 50.0 °F 80% 29.96 in 10.0 mi Calm Calm - N/A   Overcast
2:43 AM 55.4 °F 50.0 °F 82% 29.95 in 7.0 mi Calm Calm - N/A   Overcast
2:53 AM 55.0 °F 50.0 °F 83% 29.95 in 4.0 mi Calm Calm - N/A   Haze
3:17 AM 55.4 °F 50.0 °F 82% 29.95 in 2.0 mi Calm Calm - N/A   Haze
3:28 AM 53.6 °F 50.0 °F 88% 29.95 in 4.0 mi Calm Calm - N/A   Overcast
3:32 AM 53.6 °F 50.0 °F 88% 29.95 in 1.8 mi Calm Calm - N/A   Overcast
3:40 AM 53.6 °F 50.0 °F 88% 29.95 in 1.0 mi Calm Calm - N/A   Overcast
3:53 AM 54.0 °F 50.0 °F 86% 29.95 in 1.0 mi Calm Calm - N/A   Mist
4:16 AM 53.6 °F 50.0 °F 88% 29.95 in 0.8 mi Calm Calm - N/A   Mist
4:53 AM 54.0 °F 50.0 °F 86% 29.95 in 0.5 mi Calm Calm - N/A Fog Fog
5:10 AM 53.6 °F 50.0 °F 88% 29.96 in 1.2 mi Calm Calm - N/A   Overcast
5:15 AM 53.6 °F 50.0 °F 88% 29.96 in 2.0 mi Calm Calm - N/A   Overcast
5:32 AM 53.6 °F 50.0 °F 88% 29.96 in 1.5 mi Calm Calm - N/A   Overcast
5:37 AM 53.6 °F 50.0 °F 88% 29.96 in 0.8 mi Calm Calm - N/A   Overcast
5:47 AM 53.6 °F 50.0 °F 88% 29.96 in 1.5 mi Calm Calm - N/A   Overcast
5:53 AM 54.0 °F 50.0 °F 86% 29.96 in 1.8 mi Calm Calm - N/A   Overcast
6:03 AM 53.6 °F 50.0 °F 88% 29.96 in 1.0 mi Calm Calm - N/A   Mist
6:35 AM 53.6 °F 50.0 °F 88% 29.96 in 0.8 mi Calm Calm - N/A   Mist
6:53 AM 54.0 °F 50.0 °F 86% 29.97 in 0.5 mi Calm Calm - N/A Fog Fog
7:16 AM 55.4 °F 50.0 °F 82% 29.97 in 1.0 mi Calm Calm - N/A   Haze
7:23 AM 55.4 °F 50.0 °F 82% 29.97 in 0.5 mi Calm Calm - N/A   Haze
7:36 AM 55.4 °F 51.8 °F 88% 29.97 in 1.5 mi Calm Calm - N/A   Overcast
7:44 AM 55.4 °F 51.8 °F 88% 29.97 in 3.0 mi Calm Calm - N/A   Overcast
7:53 AM 55.0 °F 51.1 °F 86% 29.97 in 6.0 mi Calm Calm - N/A   Overcast
8:53 AM 57.9 °F 51.1 °F 78% 29.97 in 10.0 mi Calm Calm - N/A   Overcast
9:02 AM 60.8 °F 51.8 °F 72% 29.96 in 10.0 mi Calm Calm - N/A   Overcast
9:34 AM 62.6 °F 51.8 °F 68% 29.96 in 10.0 mi Calm Calm - N/A   Partly Cloudy
9:53 AM 64.0 °F 51.1 °F 63% 29.96 in 10.0 mi Calm Calm - N/A   Clear
10:53 AM 68.0 °F 53.1 °F 59% 29.96 in 10.0 mi South 9.2 mph - N/A   Clear
11:53 AM 70.0 °F 52.0 °F 53% 29.96 in 10.0 mi South 6.9 mph - N/A   Clear
12:53 PM 72.0 °F 48.9 °F 44% 29.95 in 10.0 mi South 4.6 mph - N/A   Clear
1:53 PM 73.0 °F 48.9 °F 42% 29.93 in 10.0 mi South 8.1 mph - N/A   Clear
2:53 PM 73.9 °F 48.9 °F 41% 29.93 in 10.0 mi South 9.2 mph - N/A   Clear
3:53 PM 71.1 °F 52.0 °F 51% 29.91 in 10.0 mi SE 9.2 mph - N/A   Clear
4:53 PM 66.9 °F 51.1 °F 57% 29.91 in 10.0 mi SSE 9.2 mph - N/A   Clear
5:53 PM 64.9 °F 51.1 °F 61% 29.90 in 10.0 mi SE 6.9 mph - N/A   Clear
6:53 PM 64.0 °F 50.0 °F 60% 29.91 in 10.0 mi SE 9.2 mph - N/A   Clear
7:53 PM 61.0 °F 50.0 °F 67% 29.92 in 10.0 mi East 8.1 mph - N/A   Clear
8:53 PM 59.0 °F 48.9 °F 69% 29.94 in 10.0 mi East 4.6 mph - N/A   Clear
9:53 PM 59.0 °F 48.9 °F 69% 29.95 in 10.0 mi East 5.8 mph - N/A   Clear
10:53 PM 57.9 °F 48.9 °F 72% 29.97 in 10.0 mi Calm Calm - N/A   Clear
11:53 PM 57.9 °F 48.9 °F 72% 29.97 in 10.0 mi Calm Calm - N/A   Clear